Vorticity
8 9 10 12 6 2 5 5 8 7 11 8 7 5 1 -2 5 5 1 3 3 5 2 -2 5 7 4 2 3 3 2 2 -1 2 4 3 3 1 0 -0 6 9 9 7 6 4 3 2 3
7 6 6 7 8 8 4 1 4 2 3 6 8 7 4 5 3 1 1 -1 1 0 2 7 7 9 7 6 8 6 6 6 3 3 5 4 3 3 3 3 4 9 6 8 7 6 4 3 3
8 6 6 6 5 6 8 10 7 5 3 2 3 4 3 1 4 -0 1 2 3 10 10 7 5 4 5 4 4 4 6 6 6 5 6 6 8 5 2 4 7 10 6 7 6 8 6 5 4
8 9 8 4 5 8 7 8 8 9 10 8 6 4 8 10 8 4 4 -1 -7 5 -2 -2 5 4 5 6 7 6 6 7 8 5 5 8 7 6 3 4 4 6 12 8 8 6 8 6 7
9 9 10 9 7 4 5 6 5 6 5 6 4 8 5 5 9 12 7 6 12 8 -1 5 3 3 3 6 5 4 4 5 5 5 5 7 6 4 4 3 3 3 8 6 7 8 8 8 7
7 10 10 7 7 8 7 5 5 3 5 4 4 6 7 7 6 5 8 6 4 1 -1 6 9 7 4 3 4 6 7 4 3 5 6 8 8 4 3 4 4 4 4 6 7 7 8 9 8
1 7 6 10 11 10 10 10 7 6 4 4 5 6 7 9 7 13 16 23 17 19 16 14 5 12 10 11 8 6 5 5 8 5 4 6 7 4 3 3 4 4 5 4 3 6 5 7 10
8 8 9 9 7 6 10 12 13 12 8 7 8 8 6 9 6 8 9 10 10 5 15 13 10 12 8 6 6 7 7 8 1 7 7 5 4 4 1 1 3 5 5 2 6 4 1 4 6
11 10 9 10 11 12 10 10 8 10 10 9 7 4 3 6 5 4 4 4 10 11 8 7 5 7 8 8 9 9 8 6 6 9 1 10 6 9 5 3 2 3 5 6 6 5 6 4 6
9 5 8 14 11 13 9 5 11 9 4 4 5 16 8 10 8 7 5 5 5 -1 3 5 2 -1 3 4 4 6 8 8 9 7 7 5 2 11 10 6 2 3 5 6 4 6 4 2 6
8 3 6 7 5 8 3 5 13 14 6 17 7 7 23 17 1 -1 1 4 6 7 8 8 11 14 12 11 9 9 5 3 3 5 9 7 6 3 5 8 8 5 6 6 4 4 4 5 3
9 5 4 1 -1 3 6 4 2 6 5 5 7 6 7 10 13 11 10 9 7 8 8 8 7 8 9 8 8 5 3 7 7 10 6 5 6 9 2 4 8 8 6 6 5 2 3 7 2
6 6 8 8 9 9 10 8 5 6 6 4 4 5 6 6 6 7 7 7 7 6 7 5 5 5 4 4 4 7 8 10 10 5 4 6 9 6 5 7 3 7 7 7 6 3 1 4 4
5 8 5 5 5 8 5 4 2 -0 -0 2 5 8 10 12 11 9 7 6 4 4 4 6 7 7 7 6 6 6 6 8 6 7 8 6 4 5 7 9 6 7 5 -1 6 4 2 -0 5
14 15 10 2 -2 0 4 3 1 0 -1 -2 -2 -1 0 5 5 3 4 6 9 8 5 4 4 4 2 1 2 1 1 2 -0 5 8 7 7 6 6 8 9 6 11 20 2 6 4 2 2
2 -1 1 6 8 5 3 1 0 1 -1 -0 -1 -1 -2 -1 -0 2 2 1 2 2 5 9 5 1 1 3 3 2 4 3 2 1 7 12 8 5 8 6 8 13 8 9 1 3 6 4 4
4 2 0 2 2 4 4 4 3 0 0 2 2 3 3 2 3 3 3 3 3 7 4 1 4 3 4 4 -0 4 8 3 1 10 15 10 9 9 7 6 6 8 7 5 4 13 7 5 4
2 3 3 3 4 3 4 4 4 2 1 1 2 2 1 2 4 3 4 7 5 3 6 4 2 9 12 12 8 8 1 -4 15 13 11 7 8 9 6 6 5 7 9 2 6 5 18 9 6
5 4 2 1 5 3 2 1 -0 0 1 1 1 4 6 5 2 2 -1 3 6 0 4 5 4 10 9 6 11 10 5 4 15 10 3 3 2 3 9 6 3 4 5 11 3 10 10 2 7
7 6 5 3 7 7 3 3 2 1 2 3 5 6 7 7 7 2 9 10 11 14 12 11 12 14 9 13 5 7 7 4 5 7 13 20 16 8 4 1 7 2 5 3 4 6 -4 15 10
4 5 8 8 4 6 8 4 5 5 5 7 10 10 8 4 7 12 9 10 8 8 10 8 6 5 7 3 3 4 24 51 51 42 22 15 25 32 32 32 15 5 3 4 9 19 8 -20 7
7 12 7 9 11 10 8 8 5 9 9 9 7 6 7 9 10 7 5 5 7 9 8 7 7 6 9 11 28 49 24 1 17 17 22 30 12 8 10 17 48 48 3 2 1 2 -6 -64 10
15 12 18 11 9 9 9 12 12 10 9 11 10 8 8 11 8 9 8 5 10 8 6 8 11 21 31 29 17 15 4 22 12 23 17 8 5 23 -13 6 6 34 32 2 6 -6 11 19 31
16 14 12 11 13 4 14 11 15 11 9 8 8 15 14 9 8 9 8 9 6 7 9 18 14 13 21 12 17 29 22 23 13 9 11 20 24 20 13 19 14 21 35 19 24 6 2 4 16
14 18 15 10 10 11 14 9 17 15 19 15 13 9 10 12 7 9 11 4 7 13 17 10 13 21 10 25 31 8 10 17 3 25 21 -4 5 13 31 22 5 6 21 9 31 18 2 2 11
11 17 -1 15 17 22 14 5 11 11 11 12 13 12 10 8 13 8 5 9 15 15 16 14 15 18 12 5 33 -2 4 28 18 15 22 19 10 25 3 31 31 5 -1 19 -0 38 12 -3 12
8 7 31 19 15 12 9 11 14 16 15 15 14 9 11 13 4 7 8 13 10 19 2 13 20 10 -1 29 18 8 9 -10 5 29 -22 21 16 53 42 43 39 24 10 3 22 14 41 4 3
16 16 8 2 11 14 15 10 15 10 16 10 16 14 7 7 7 7 11 7 13 14 0 20 5 12 15 30 10 18 32 7 10 30 32 8 31 45 52 27 17 45 14 -1 2 17 31 15 4
8 8 18 3 5 13 17 9 6 12 17 11 9 11 17 10 8 14 10 11 13 4 9 10 7 9 29 9 21 29 17 8 14 26 6 28 29 20 23 57 48 20 34 25 31 10 24 24 -1
9 14 13 7 16 10 13 18 17 4 2 11 17 9 5 11 12 18 5 14 8 5 13 5 15 13 10 21 2 20 15 -4 33 8 30 46 6 39 9 2 16 47 12 24 16 33 41 27 26
Height
5844 5845 5845 5846 5850 5847 5846 5849 5850 5850 5853 5852 5852 5854 5857 5858 5858 5860 5859 5858 5859 5859 5859 5858 5859 5858 5858 5857 5855 5854 5854 5854 5853 5852 5851 5850 5850 5850 5850 5850 5850 5848 5848 5848 5846 5846 5846 5846 5845
5840 5841 5841 5842 5843 5842 5842 5844 5846 5847 5849 5850 5850 5851 5853 5854 5854 5855 5854 5855 5854 5854 5854 5854 5854 5854 5853 5852 5851 5851 5851 5851 5850 5849 5848 5847 5847 5848 5848 5847 5847 5846 5845 5844 5843 5843 5843 5843 5843
5835 5836 5838 5839 5838 5837 5839 5840 5841 5842 5845 5847 5847 5849 5849 5849 5850 5851 5850 5850 5849 5848 5849 5850 5850 5849 5849 5848 5846 5846 5845 5845 5844 5844 5844 5844 5844 5844 5845 5844 5844 5843 5842 5841 5840 5839 5839 5840 5840
5830 5832 5835 5835 5833 5834 5835 5837 5838 5839 5841 5842 5842 5843 5844 5846 5845 5845 5846 5846 5845 5844 5846 5846 5846 5844 5844 5844 5844 5842 5841 5841 5841 5841 5841 5841 5840 5841 5841 5841 5841 5840 5839 5838 5837 5836 5836 5836 5837
5826 5828 5829 5830 5829 5830 5832 5834 5834 5835 5835 5836 5837 5838 5840 5840 5841 5842 5842 5842 5841 5841 5842 5841 5840 5839 5839 5838 5838 5838 5837 5837 5837 5836 5836 5835 5835 5835 5837 5837 5837 5836 5835 5834 5834 5833 5832 5832 5833
5823 5823 5825 5824 5823 5824 5826 5829 5828 5829 5831 5832 5833 5834 5837 5836 5836 5836 5837 5837 5837 5837 5836 5835 5834 5835 5834 5833 5832 5832 5831 5831 5830 5830 5830 5830 5831 5831 5832 5833 5832 5832 5832 5831 5830 5830 5830 5830 5829
5819 5819 5820 5819 5819 5820 5821 5823 5825 5823 5824 5824 5826 5827 5831 5832 5830 5831 5831 5832 5832 5831 5831 5830 5828 5827 5828 5828 5828 5827 5825 5824 5824 5825 5825 5825 5825 5825 5826 5827 5827 5828 5828 5828 5827 5826 5826 5826 5826
5815 5815 5814 5815 5815 5814 5816 5817 5819 5820 5820 5818 5817 5819 5822 5823 5822 5822 5823 5824 5825 5824 5824 5824 5824 5822 5822 5821 5822 5820 5819 5818 5819 5820 5820 5821 5821 5821 5821 5821 5821 5822 5823 5823 5823 5823 5823 5823 5822
5811 5811 5810 5812 5812 5811 5811 5812 5812 5813 5813 5814 5813 5813 5815 5816 5815 5815 5815 5816 5817 5818 5817 5816 5815 5816 5815 5815 5815 5815 5812 5814 5813 5813 5813 5814 5815 5817 5816 5816 5816 5817 5818 5818 5818 5818 5819 5819 5818
5807 5805 5806 5808 5810 5810 5808 5808 5808 5807 5806 5807 5809 5808 5808 5808 5808 5808 5807 5807 5808 5809 5809 5809 5808 5809 5809 5808 5808 5808 5807 5806 5806 5806 5806 5806 5808 5809 5811 5811 5810 5811 5811 5812 5813 5813 5814 5815 5815
5802 5801 5803 5803 5804 5806 5806 5807 5806 5804 5802 5804 5805 5805 5803 5803 5804 5804 5803 5802 5800 5799 5800 5800 5801 5802 5803 5802 5801 5801 5800 5800 5798 5798 5799 5799 5799 5800 5803 5804 5804 5804 5804 5805 5805 5807 5808 5809 5810
5799 5797 5799 5799 5800 5800 5802 5802 5799 5800 5801 5800 5799 5798 5799 5799 5799 5797 5796 5794 5793 5793 5793 5793 5792 5792 5792 5794 5794 5792 5792 5792 5792 5791 5790 5791 5791 5791 5792 5794 5796 5797 5798 5798 5799 5800 5801 5802 5804
5794 5793 5794 5794 5795 5797 5798 5796 5793 5796 5797 5797 5796 5794 5793 5792 5791 5790 5788 5786 5785 5785 5785 5785 5786 5785 5784 5784 5785 5784 5783 5783 5783 5783 5781 5780 5781 5781 5782 5784 5785 5788 5790 5792 5791 5792 5793 5795 5797
5791 5790 5790 5789 5789 5792 5793 5790 5790 5792 5792 5792 5792 5791 5789 5788 5786 5784 5782 5780 5779 5779 5779 5777 5776 5775 5775 5775 5775 5775 5774 5774 5774 5773 5771 5770 5770 5771 5771 5773 5775 5776 5780 5782 5782 5784 5785 5787 5791
5785 5786 5785 5785 5785 5786 5785 5785 5785 5786 5786 5785 5785 5785 5784 5781 5779 5777 5776 5774 5772 5771 5769 5768 5767 5767 5765 5764 5763 5763 5764 5763 5762 5762 5761 5759 5759 5759 5761 5762 5763 5765 5767 5770 5772 5776 5777 5779 5781
5780 5780 5780 5780 5779 5779 5780 5779 5779 5779 5779 5779 5779 5778 5777 5776 5773 5771 5769 5767 5765 5763 5761 5759 5757 5756 5754 5752 5750 5749 5748 5749 5750 5748 5748 5748 5746 5745 5746 5749 5751 5754 5754 5758 5760 5766 5768 5770 5772
5772 5772 5774 5773 5772 5771 5772 5772 5772 5772 5772 5771 5770 5769 5768 5767 5765 5763 5761 5759 5758 5755 5752 5748 5746 5743 5741 5740 5739 5737 5734 5733 5733 5734 5732 5731 5732 5730 5731 5734 5738 5741 5741 5743 5749 5753 5757 5760 5763
5763 5764 5765 5765 5765 5764 5763 5764 5763 5762 5761 5761 5761 5760 5758 5756 5755 5753 5750 5747 5745 5742 5739 5736 5733 5730 5727 5724 5723 5722 5721 5719 5716 5715 5715 5713 5714 5715 5714 5717 5721 5725 5728 5732 5736 5741 5744 5748 5752
5753 5753 5754 5754 5753 5754 5754 5754 5753 5753 5752 5751 5749 5748 5747 5746 5744 5741 5739 5736 5733 5729 5725 5721 5719 5716 5712 5709 5706 5704 5702 5701 5698 5695 5694 5694 5694 5696 5698 5701 5702 5708 5712 5718 5724 5728 5729 5732 5740
5741 5741 5741 5742 5740 5740 5742 5743 5743 5743 5742 5740 5739 5737 5736 5733 5731 5728 5725 5723 5720 5716 5711 5706 5703 5700 5697 5693 5690 5687 5685 5682 5679 5674 5671 5670 5670 5672 5675 5680 5686 5690 5696 5701 5709 5710 5707 5715 5724
5730 5729 5729 5729 5726 5727 5727 5731 5732 5731 5730 5728 5727 5726 5723 5721 5719 5716 5711 5708 5705 5702 5698 5695 5689 5686 5682 5678 5675 5670 5665 5660 5655 5651 5649 5648 5647 5648 5650 5655 5664 5673 5677 5684 5691 5697 5690 5696 5708
5717 5717 5715 5713 5712 5714 5714 5716 5721 5719 5718 5718 5716 5713 5711 5709 5707 5704 5701 5698 5695 5691 5687 5682 5676 5671 5666 5660 5655 5651 5647 5645 5640 5636 5634 5633 5631 5633 5634 5635 5639 5651 5658 5665 5675 5682 5682 5674 5690
5702 5701 5702 5700 5700 5700 5702 5698 5712 5710 5710 5707 5704 5702 5701 5699 5696 5693 5690 5686 5682 5678 5674 5669 5662 5655 5650 5645 5641 5638 5634 5629 5626 5623 5621 5620 5618 5618 5619 5622 5624 5629 5639 5646 5654 5661 5671 5675 5679
5690 5690 5688 5687 5687 5686 5691 5687 5704 5698 5699 5695 5693 5690 5689 5687 5685 5682 5679 5675 5672 5667 5661 5655 5649 5644 5639 5635 5629 5625 5621 5616 5613 5610 5608 5606 5605 5602 5602 5603 5605 5611 5617 5624 5633 5644 5657 5664 5673
5676 5678 5675 5676 5672 5676 5680 5675 5688 5685 5684 5682 5680 5679 5678 5676 5674 5671 5668 5663 5660 5654 5649 5644 5639 5633 5628 5623 5617 5614 5610 5606 5602 5598 5594 5590 5586 5584 5581 5583 5586 5591 5598 5605 5614 5627 5639 5651 5658
5666 5665 5665 5663 5664 5668 5667 5665 5672 5673 5672 5670 5669 5669 5666 5665 5662 5660 5657 5654 5649 5645 5641 5636 5630 5625 5619 5613 5608 5605 5600 5595 5590 5583 5578 5572 5565 5559 5555 5556 5560 5569 5578 5590 5599 5608 5622 5639 5646
5656 5657 5660 5655 5653 5652 5655 5658 5661 5662 5662 5660 5659 5657 5656 5654 5652 5650 5647 5644 5640 5636 5633 5628 5623 5616 5610 5606 5601 5597 5593 5588 5580 5573 5567 5557 5545 5531 5527 5531 5539 5549 5563 5574 5586 5596 5607 5621 5636
5644 5647 5648 5646 5646 5644 5647 5649 5652 5652 5651 5650 5649 5648 5646 5644 5643 5641 5639 5637 5633 5629 5625 5620 5615 5609 5604 5599 5596 5592 5588 5582 5572 5564 5558 5549 5538 5523 5517 5520 5528 5535 5550 5564 5575 5584 5594 5608 5623
5639 5639 5639 5641 5640 5638 5640 5643 5643 5642 5642 5642 5641 5640 5639 5636 5635 5633 5632 5630 5626 5622 5619 5615 5609 5603 5596 5592 5589 5585 5581 5575 5567 5557 5553 5546 5533 5523 5516 5520 5524 5532 5544 5556 5565 5573 5584 5597 5610
5631 5632 5631 5632 5634 5633 5632 5637 5635 5635 5634 5634 5633 5632 5631 5629 5627 5626 5625 5623 5619 5616 5613 5608 5602 5597 5592 5586 5583 5578 5573 5568 5564 5558 5548 5543 5532 5525 5522 5523 5526 5534 5541 5552 5559 5567 5577 5589 5607